Regional Weather Roundup
Issued by NWS Bismarck, ND

Home | Current Version | Previous Version | Text Only | Print | Product List | Glossary On
Versions: 1 2 3 4 5 6 7 8 9 10 11 12 13 14 15 16 17 18 19 20 21 22 23 24 25 26 27 28 29 30 31 32 33 34 35 36 37 38 39 40 41 42 43 44 45 46 47 48 49 50
000
ASUS43 KBIS 232302
RWRBIS

NWR BROADCAST TEXT
NATIONAL WEATHER SERVICE BISMARCK ND
600 PM CDT THU MAR 23 2017

NOTE: "FAIR" INDICATES FEW OR NO CLOUDS BELOW 12,000 FEET WITH NO
SIGNIFICANT WEATHER AND/OR OBSTRUCTIONS TO VISIBILITY.


CITY           SKY/WX    TMP DP  RH WIND       PRES   REMARKS
WILLISTON      FAIR      56  36  47 E7        29.77R
MINOT          FAIR      43  34  70 NW10      29.78R
MINOT AFB      FAIR      40  33  76 N8        29.77R
BISMARCK       LGT RAIN  42  38  85 CALM      29.77R
DICKINSON      PTSUNNY   51  33  50 CALM      29.74R
GARRISON         N/A     44  36  73 NW6       29.75S
HETTINGER ARPT LGT RAIN  43  40  89 NE8       29.79R
JAMESTOWN      CLOUDY    41  37  86 SE8       29.74R
TIOGA          FAIR      50  41  71 NE8       29.78S
$$

CITY           SKY/WX    TMP DP  RH WIND       PRES   REMARKS
GRAND FORKS    CLOUDY    38  36  92 CALM      29.80R
GRAND FORKS AF CLOUDY    36  36 100 E3        29.80R
DEVILS LAKE    CLOUDY    35  33  92 CALM      29.76S
FARGO          LGT RAIN  37  36  96 SE9       29.81R FOG
GWINNER        FOG       37  37 100 MISG      29.75F VSB 3/4
ROLLA          FAIR      36  36 100 NW9       29.76S
$$

CITY           SKY/WX    TMP DP  RH WIND       PRES   REMARKS
ABERDEEN       CLOUDY    44  35  70 NE5       29.72R
MOBRIDGE       FAIR      50  37  61 N18       29.69R
BUFFALO          N/A     44  41  89 NE8       29.74R
RAPID CITY     LGT RAIN  47  42  83 NW25G33   29.73R
GLASGOW        FAIR      59  29  31 MISG      29.79R
SIDNEY         FAIR      58  41  53 NE12      29.75S
WOLF POINT     FAIR      66  30  26 NW15      29.75R
GLENDIVE       FAIR      61  30  31 NW12      29.76R
MILES CITY     FAIR      58  31  35 W6        29.79R
BAKER          PTSUNNY   51  35  54 S5        29.79R
$$

CITY           SKY/WX    TMP DP  RH WIND       PRES   REMARKS
BILLINGS       PTSUNNY   54  35  48 SE8       29.84R
GREAT FALLS    FAIR      56  16  20 W16       29.86R
$$




USA.gov is the U.S. government's official web portal to all federal, state and local government web resources and services.